GW6550 Weather Reports


Display with metric or nautical units.
time (UTC)temp
F
wind
direction
speed
MPH
gust
MPH
rain 1hr
in
rain 24hr
in
rain mn
in
humidity
%
barometer
mb
20260503183808 62 86 2.0 3.0 0.00 0.00 0.00 59 1013.7
20260503183307 62 129 2.0 4.0 0.00 0.00 0.00 59 1013.8
20260503182807 62 97 2.0 6.0 0.00 0.00 0.00 60 1013.8
20260503182307 61 201 2.0 3.0 0.00 0.00 0.00 61 1013.8
20260503181807 61 169 1.0 2.0 0.00 0.00 0.00 62 1013.8
20260503181307 61 279 1.0 2.0 0.00 0.00 0.00 63 1013.8
20260503180807 61 60 2.0 4.0 0.00 0.00 0.00 63 1013.8
20260503180307 61 339 2.0 3.0 0.00 0.00 0.00 65 1013.8
20260503175808 61 307 1.0 2.0 0.00 0.00 0.00 65 1013.8
20260503175307 60 321 2.0 3.0 0.00 0.00 0.00 66 1013.8
20260503174807 60 21 1.0 2.0 0.00 0.00 0.00 66 1013.7
20260503174307 60 330 2.0 2.0 0.00 0.00 0.00 67 1013.8
20260503173807 59 270 1.0 2.0 0.00 0.00 0.00 68 1013.8
20260503173307 59 262 2.0 3.0 0.00 0.00 0.00 69 1013.8
20260503172808 59 263 0.0 1.0 0.00 0.00 0.00 70 1013.8
20260503172307 58 342 0.0 1.0 0.00 0.00 0.00 72 1013.8
20260503171808 58 201 3.0 5.0 0.00 0.00 0.00 72 1013.8
20260503171307 59 244 2.0 3.0 0.00 0.00 0.00 73 1013.8
20260503170807 59 217 3.0 5.0 0.00 0.00 0.00 72 1013.8
20260503170307 59 219 3.0 4.0 0.00 0.00 0.00 72 1013.8
20260503150808 57 205 1.0 1.0 0.00 0.00 0.00 71 1013.3
20260503150307 57 194 1.0 2.0 0.00 0.00 0.00 71 1013.3
20260503140309 56 329 0.0 0.0 0.00 0.00 0.00 78 1012.7
20260503131308 55 164 0.0 2.0 0.00 0.00 0.00 80 1012.2
20260503130808 55 0 0.0 0.0 0.00 0.00 0.00 79 1012.1
20260503130307 55 302 1.0 2.0 0.00 0.00 0.00 80 1012.0
20260503110808 55 317 0.0 2.0 0.00 0.00 0.00 79 1012.1
20260503110307 55 240 0.0 2.0 0.00 0.00 0.00 79 1012.1
20260503090307 55 293 1.0 2.0 0.00 0.00 0.00 80 1012.3
20260503081307 56 300 3.0 5.0 0.00 0.00 0.00 78 1012.6
20260503080807 56 283 1.0 2.0 0.00 0.00 0.00 78 1012.7
20260503080307 56 292 2.0 4.0 0.00 0.00 0.00 78 1012.7
20260503072807 56 298 2.0 3.0 0.00 0.00 0.00 78 1012.9
20260503072307 56 302 3.0 5.0 0.00 0.00 0.00 78 1012.8
20260503071807 56 255 1.0 2.0 0.00 0.00 0.00 78 1012.9
20260503071307 56 293 1.0 3.0 0.00 0.00 0.00 77 1012.8
20260503070807 56 306 3.0 6.0 0.00 0.00 0.00 77 1012.8
20260503070307 56 305 2.0 4.0 0.00 0.00 0.00 77 1012.8
20260503060308 56 288 3.0 4.0 0.00 0.00 0.00 77 1013.0
20260503054807 56 293 2.0 3.0 0.00 0.00 0.00 76 1013.1
20260503054307 56 262 1.0 2.0 0.00 0.00 0.00 76 1013.1
20260503053807 56 318 2.0 4.0 0.00 0.00 0.00 76 1013.1
20260503053307 56 339 4.0 5.0 0.00 0.00 0.00 76 1013.1
20260503052807 56 262 2.0 4.0 0.00 0.00 0.00 77 1013.2
20260503052307 56 287 3.0 4.0 0.00 0.00 0.00 77 1013.2
20260503051807 56 345 3.0 5.0 0.00 0.00 0.00 77 1013.2
20260503051307 56 337 1.0 3.0 0.00 0.00 0.00 77 1013.2
20260503050807 56 277 2.0 4.0 0.00 0.00 0.00 77 1013.2
20260503050309 57 304 2.0 4.0 0.00 0.00 0.00 77 1013.2
20260503045807 57 308 1.0 3.0 0.00 0.00 0.00 76 1013.1
20260503045307 57 268 3.0 5.0 0.00 0.00 0.00 76 1013.1
20260503044807 57 288 2.0 3.0 0.00 0.00 0.00 76 1013.1
20260503044307 57 275 2.0 4.0 0.00 0.00 0.00 76 1013.0
20260503043807 57 301 3.0 5.0 0.00 0.00 0.00 76 1012.9
20260503043307 57 288 2.0 5.0 0.00 0.00 0.00 75 1012.9
20260503042807 57 288 2.0 3.0 0.00 0.00 0.00 76 1012.9
20260503042308 57 273 3.0 5.0 0.00 0.00 0.00 75 1012.9
20260503041807 57 295 3.0 6.0 0.00 0.00 0.00 75 1012.8
20260503041308 57 293 2.0 3.0 0.00 0.00 0.00 75 1012.8
20260503040807 57 312 4.0 8.0 0.00 0.00 0.00 75 1012.8
20260503040307 57 306 2.0 4.0 0.00 0.00 0.00 75 1012.7
20260503035807 57 310 4.0 6.0 0.00 0.00 0.00 75 1012.6
20260503035307 57 308 3.0 6.0 0.00 0.00 0.00 75 1012.6
20260503034807 57 298 4.0 7.0 0.00 0.00 0.00 75 1012.5
20260503034307 57 331 4.0 6.0 0.00 0.00 0.00 75 1012.5
20260503033808 57 322 3.0 6.0 0.00 0.00 0.00 74 1012.5
20260503033307 57 335 3.0 5.0 0.00 0.00 0.00 74 1012.3
20260503032807 57 352 3.0 5.0 0.00 0.00 0.00 74 1012.3
20260503032307 57 347 4.0 8.0 0.00 0.00 0.00 73 1012.3
20260503031807 58 0 6.0 10.0 0.00 0.00 0.00 73 1012.3
20260503031307 58 332 3.0 5.0 0.00 0.00 0.00 73 1012.2
20260503030807 58 337 3.0 5.0 0.00 0.00 0.00 72 1012.2
20260503030307 58 332 3.0 5.0 0.00 0.00 0.00 72 1012.1
20260503025807 58 353 3.0 6.0 0.00 0.00 0.00 71 1012.0
20260503025307 58 341 2.0 4.0 0.00 0.00 0.00 71 1012.0
20260503024807 58 345 2.0 5.0 0.00 0.00 0.00 71 1011.9
20260503024307 59 304 2.0 5.0 0.00 0.00 0.00 73 1011.8
20260503023807 59 303 2.0 3.0 0.00 0.00 0.00 74 1011.8
20260503023307 59 300 2.0 5.0 0.00 0.00 0.00 74 1011.8
20260503022807 59 301 4.0 6.0 0.00 0.00 0.00 74 1011.7
20260503022307 59 344 5.0 9.0 0.00 0.00 0.00 73 1011.6
20260503021807 59 298 3.0 6.0 0.00 0.00 0.00 73 1011.7
20260503021307 60 331 4.0 7.0 0.00 0.00 0.00 72 1011.7
20260503020814 60 308 2.0 4.0 0.00 0.00 0.00 72 1011.7
20260503020307 60 330 4.0 5.0 0.00 0.00 0.00 72 1011.7
20260503015807 61 327 2.0 4.0 0.00 0.00 0.00 71 1011.7
20260503015307 61 302 3.0 6.0 0.00 0.00 0.00 71 1011.7
20260503014807 61 304 2.0 4.0 0.00 0.00 0.00 71 1011.7
20260503014307 62 283 3.0 6.0 0.00 0.00 0.00 70 1011.7
20260503013808 62 325 4.0 6.0 0.00 0.00 0.00 70 1011.7
20260503013307 62 309 2.0 4.0 0.00 0.00 0.00 69 1011.7
20260503012808 62 319 3.0 4.0 0.00 0.00 0.00 69 1011.8
20260503012307 63 328 4.0 7.0 0.00 0.00 0.00 69 1011.7
20260503011807 63 337 2.0 4.0 0.00 0.00 0.00 68 1011.7
20260503011308 63 331 4.0 7.0 0.00 0.00 0.00 68 1011.7
20260503010807 64 318 4.0 6.0 0.00 0.00 0.00 67 1011.7
20260503010307 64 332 0.0 2.0 0.00 0.00 0.00 67 1011.6
20260503005808 64 341 4.0 7.0 0.00 0.00 0.00 67 1011.7
20260503005307 64 310 3.0 6.0 0.00 0.00 0.00 66 1011.7
20260503004808 64 322 1.0 2.0 0.00 0.00 0.00 67 1011.7
20260503004307 64 317 2.0 3.0 0.00 0.00 0.00 67 1011.7
20260503003807 65 339 4.0 6.0 0.00 0.00 0.00 66 1011.7
20260503003307 65 353 3.0 6.0 0.00 0.00 0.00 64 1011.7
20260503002807 64 307 4.0 8.0 0.00 0.00 0.00 65 1011.7
20260503002307 64 359 4.0 7.0 0.00 0.00 0.00 66 1011.8
20260503001808 65 339 4.0 7.0 0.00 0.00 0.00 64 1011.8
20260503001307 65 321 5.0 8.0 0.00 0.00 0.00 65 1011.8
20260503000807 65 15 7.0 10.0 0.00 0.00 0.00 64 1011.8
20260503000307 65 356 2.0 6.0 0.00 0.00 0.00 64 1011.8
20260502235807 65 357 4.0 7.0 0.00 0.00 0.00 64 1011.8
20260502235307 65 340 4.0 5.0 0.00 0.00 0.00 64 1011.8
20260502234807 66 333 5.0 7.0 0.00 0.00 0.00 62 1011.8
20260502234307 66 357 5.0 7.0 0.00 0.00 0.00 63 1011.8
20260502233807 66 324 4.0 7.0 0.00 0.00 0.00 63 1011.9
20260502233307 65 348 4.0 7.0 0.00 0.00 0.00 63 1012.0
20260502232807 65 359 5.0 8.0 0.00 0.00 0.00 64 1012.0
20260502232307 64 21 5.0 6.0 0.00 0.00 0.00 66 1012.1
20260502231807 64 1 7.0 12.0 0.00 0.00 0.00 66 1012.1
20260502231308 65 349 6.0 11.0 0.00 0.00 0.00 67 1012.2
20260502230807 65 11 7.0 13.0 0.00 0.00 0.00 65 1012.1
20260502230307 65 341 6.0 11.0 0.00 0.00 0.00 65 1012.3
20260502225807 65 9 7.0 11.0 0.00 0.00 0.00 64 1012.4
20260502225307 65 325 6.0 9.0 0.00 0.00 0.00 64 1012.4
20260502224807 65 346 4.0 7.0 0.00 0.00 0.00 65 1012.5
20260502224307 65 8 7.0 10.0 0.00 0.00 0.00 65 1012.6
20260502223807 65 349 6.0 10.0 0.00 0.00 0.00 65 1012.6
20260502223308 65 339 6.0 9.0 0.00 0.00 0.00 64 1012.7
20260502222807 65 353 4.0 6.0 0.00 0.00 0.00 65 1012.7
20260502222307 65 17 5.0 9.0 0.00 0.00 0.00 65 1012.8
20260502221807 65 0 7.0 10.0 0.00 0.00 0.00 64 1012.9
20260502221309 65 331 5.0 8.0 0.00 0.00 0.00 64 1013.0
20260502220807 66 28 6.0 9.0 0.00 0.00 0.00 64 1013.0
20260502220307 65 10 6.0 13.0 0.00 0.00 0.00 65 1013.1
20260502215808 65 13 5.0 9.0 0.00 0.00 0.00 65 1013.1
20260502215307 65 344 6.0 9.0 0.00 0.00 0.00 65 1013.2
20260502214807 65 338 6.0 8.0 0.00 0.00 0.00 67 1013.3
20260502214307 65 348 5.0 9.0 0.00 0.00 0.00 65 1013.3
20260502213807 65 38 4.0 7.0 0.00 0.00 0.00 67 1013.3
20260502213307 65 351 4.0 5.0 0.00 0.00 0.00 67 1013.4
20260502212807 65 18 5.0 9.0 0.00 0.00 0.00 66 1013.3
20260502212308 65 17 4.0 8.0 0.00 0.00 0.00 68 1013.4
20260502211808 65 42 8.0 12.0 0.00 0.00 0.00 68 1013.5
20260502211307 65 14 5.0 7.0 0.00 0.00 0.00 67 1013.5
20260502210809 66 358 7.0 10.0 0.00 0.00 0.00 65 1013.5
20260502210307 65 32 6.0 9.0 0.00 0.00 0.00 65 1013.5
20260502205807 65 338 2.0 3.0 0.00 0.00 0.00 67 1013.6
20260502205309 65 7 2.0 4.0 0.00 0.00 0.00 68 1013.7
20260502204807 65 44 5.0 8.0 0.00 0.00 0.00 66 1013.8
20260502204307 65 330 4.0 6.0 0.00 0.00 0.00 66 1013.8
20260502203807 65 6 2.0 5.0 0.00 0.00 0.00 67 1013.8
20260502203308 65 34 4.0 9.0 0.00 0.00 0.00 67 1013.8
20260502202807 65 308 1.0 2.0 0.00 0.00 0.00 67 1013.9
20260502202307 64 1 4.0 5.0 0.00 0.00 0.00 67 1013.9
20260502201807 64 38 4.0 8.0 0.00 0.00 0.00 67 1014.1
20260502201307 64 65 4.0 5.0 0.00 0.00 0.00 68 1014.1
20260502200807 64 354 4.0 6.0 0.00 0.00 0.00 67 1014.1
20260502200307 64 19 4.0 6.0 0.00 0.00 0.00 68 1014.2
20260502195807 64 30 4.0 8.0 0.00 0.00 0.00 67 1014.2
20260502195307 64 319 2.0 3.0 0.00 0.00 0.00 69 1014.3
20260502194807 64 336 3.0 4.0 0.00 0.00 0.00 68 1014.3
20260502194308 63 311 0.0 1.0 0.00 0.00 0.00 69 1014.3
20260502193808 64 31 4.0 5.0 0.00 0.00 0.00 68 1014.4
20260502193307 63 308 2.0 3.0 0.00 0.00 0.00 70 1014.4
20260502192807 63 346 3.0 5.0 0.00 0.00 0.00 70 1014.5
20260502192307 63 24 3.0 7.0 0.00 0.00 0.00 71 1014.4
20260502191807 63 12 5.0 7.0 0.00 0.00 0.00 69 1014.5
20260502191307 64 11 3.0 5.0 0.00 0.00 0.00 68 1014.5
20260502190807 63 333 1.0 3.0 0.00 0.00 0.00 69 1014.5
20260502190307 63 310 1.0 3.0 0.00 0.00 0.00 70 1014.6
20260502185807 63 16 5.0 7.0 0.00 0.00 0.00 69 1014.6
20260502185307 63 338 1.0 2.0 0.00 0.00 0.00 71 1014.6
20260502184807 63 72 3.0 4.0 0.00 0.00 0.00 71 1014.6
20260502184309 64 72 3.0 7.0 0.00 0.00 0.00 68 1014.6